Weather in Saguny

Russia / Voronezh Oblast     50°35′48″N   39°43′32″E
temp.,
°C
wind,
m/s
gust,
m/s
humid.,
%
clouds,
%
prec.,
mm/h
press.,
hPa
HPBL,
m
25 february, thu
thu2500:00−13ssw5994100 0.2 1037308
03:00−12ssw61194100 0.6 1035374
06:00−11ssw61193100 0.3 1032400
09:00−9sw71187100 0.3 1031403
12:00−6sw71192100 0.1 1029438
15:00−3sw71293100 0.1 1025402
18:00−2wsw81595100 0.3 1022430
21:00+1w71497100 0.7 1021413
26 february, fri
fri2600:00+2w61398100 0.5 1020306
03:00+2wnw61298100 0.9 1020355
06:00+2wnw51199100 0.1 1019251
09:00+3w59100100 0.1 1019208
12:00+3w611100100 0.0 1018341
15:00+3w71398100 0.0 1017432
18:00+3w71398100 0.0 1014439
21:00+3w61297100 0.3 1014362
27 february, sat
sat2700:00+2w61395100 0.1 1012391
03:00+1w51195100 0.1 1011480
06:00+1w51195100 0.0 1010425
09:00+1w51196100 0.1 1009473
12:00+2w71091100 0.1 1008772
15:00+2w61089100 0.1 1008826
18:00+1w5109798 0.1 1007526
21:000w5109899 0.3 1007493
28 february, sun
sun2800:000wnw61197100 0.1 1007607
03:00−3n6108998 0.4 1010466
06:00−5nnw7977100 0.1 1012816
09:00−7nnw6975100 0.1 1014750
12:00−6nnw6871100 0.0 1016745
15:00−5nnw6970100 0.1 1017766
18:00−6nnw6975100 0.0 1019735
21:00−7n5880100 0.0 1021668
1 march, mon
mon100:00−7n5780100 0.0 1023644
03:00−8n4782100 0.0 1024572
06:00−8nnw4885100 0.0 1026554
09:00−8n478197 0.0 1027541
12:00−6n577193 0.0 1029625
15:00−4nnw576972 0.0 1029650
18:00−5nnw36780 0.0 1030450
21:00−5nw37870 0.0 1031309